Weather History for Valdosta Regional, GA

Change the Weather History Date:

Monday, July 15, 2013

  Actual Average Record
Temperature  
Mean Temperature 82 °F 82 °F  
Max Temperature 90 °F 92 °F 97 °F (2006)
Min Temperature 74 °F 71 °F 64 °F (2001)
Cooling Degree Days 17 16  
Month to date cooling degree days 264 240  
Year to date cooling degree days 1379 1084  
Since 1 June cooling degree days 817 672  
Growing Degree Days 31 (Base 50)    
Moisture  
Dew Point 72 °F    
Average Humidity 73    
Maximum Humidity 87    
Minimum Humidity 59    
Precipitation  
Precipitation 0.24 in 0.22 in 1.03 in (1949)
Month to date precipitation 4.56 3.13  
Year to date precipitation 22.89 28.19  
Sea Level Pressure  
Sea Level Pressure 30.17 in    
Wind  
Wind Speed 5 mph (East)    
Max Wind Speed 16 mph    
Max Gust Speed 24 mph    
Visibility 9 miles    
Events Rain    
T = Trace of Precipitation, MM = Missing Value Source: NWS Daily Summary

Daily Weather History Graph

Daily Weather History Graph

Search for Another Location

Airport:

Trip Planner

Search our weather history database for the weather conditions in past years. The results will help you decide how hot, cold, wet, or windy it might be!

Date:

Astronomy

Jul. 15, 2013 Rise Set
Actual Time 6:40 AM EDT 8:37 PM EDT
Civil Twilight 6:13 AM EDT 9:04 PM EDT
Nautical Twilight 5:40 AM EDT 9:37 PM EDT
Astronomical Twilight 5:05 AM EDT 10:12 PM EDT
Moon 1:25 PM EDT (7/15) 12:20 AM EDT (7/15)
Length of Visible Light 14h 50m
Length of Day
13h 56m
Waxing Crescent, 45% of the Moon is Illuminated
Jul 15
Waxing Crescent
Jul 15
First Quarter
Jul 22
Full
Jul 29
Last Quarter
Aug 6
New

Hourly Weather History & Observations

Time (EDT) Temp. Heat Index Dew Point Humidity Pressure Visibility Wind Dir Wind Speed Gust Speed Precip Events Conditions
12:53 AM 77.0 °F - 71.1 °F 82% 30.16 in 10.0 mi Calm Calm - N/A   Clear
1:53 AM 75.0 °F - 71.1 °F 87% 30.16 in 10.0 mi Calm Calm - N/A   Clear
2:53 AM 75.0 °F - 70.0 °F 84% 30.16 in 10.0 mi East 3.5 mph - 0.01 in   Clear
3:53 AM 73.9 °F - 70.0 °F 87% 30.15 in 10.0 mi East 3.5 mph - N/A   Clear
4:24 AM 73.4 °F - 69.8 °F 88% 30.14 in 10.0 mi Calm Calm - N/A   Scattered Clouds
4:36 AM 73.4 °F - 69.8 °F 88% 30.13 in 10.0 mi Calm Calm - N/A   Mostly Cloudy
4:53 AM 73.9 °F - 70.0 °F 87% 30.16 in 10.0 mi ENE 4.6 mph - N/A   Mostly Cloudy
5:28 AM 73.4 °F - 69.8 °F 88% 30.14 in 10.0 mi East 3.5 mph - N/A   Scattered Clouds
5:53 AM 75.0 °F - 70.0 °F 84% 30.17 in 10.0 mi East 5.8 mph - N/A   Mostly Cloudy
6:53 AM 75.0 °F - 71.1 °F 87% 30.18 in 3.0 mi ENE 5.8 mph - N/A   Overcast
7:53 AM 75.9 °F - 71.1 °F 85% 30.19 in 10.0 mi ENE 4.6 mph - N/A   Overcast
8:53 AM 78.1 °F - 71.1 °F 79% 30.20 in 10.0 mi ENE 8.1 mph - N/A   Mostly Cloudy
9:01 AM 78.8 °F - 71.6 °F 78% 30.18 in 10.0 mi ENE 5.8 mph - N/A   Scattered Clouds
9:53 AM 82.0 °F 86.7 °F 72.0 °F 71% 30.21 in 10.0 mi Variable 3.5 mph - N/A   Scattered Clouds
10:00 AM 82.4 °F 87.2 °F 71.6 °F 70% 30.18 in 10.0 mi ENE 5.8 mph - N/A   Mostly Cloudy
10:15 AM 84.2 °F 89.6 °F 71.6 °F 66% 30.19 in 10.0 mi East 9.2 mph - N/A   Mostly Cloudy
10:27 AM 82.4 °F 87.2 °F 71.6 °F 70% 30.19 in 10.0 mi NE 8.1 mph - N/A   Overcast
10:53 AM 84.9 °F 90.7 °F 72.0 °F 65% 30.21 in 10.0 mi NE 9.2 mph - N/A   Overcast
11:00 AM 84.2 °F 89.6 °F 71.6 °F 66% 30.19 in 10.0 mi ENE 8.1 mph - N/A   Mostly Cloudy
11:36 AM 86.0 °F 93.4 °F 73.4 °F 66% 30.19 in 10.0 mi ESE 8.1 mph - N/A   Mostly Cloudy
11:53 AM 86.0 °F 92.2 °F 72.0 °F 63% 30.21 in 10.0 mi East 8.1 mph - N/A   Mostly Cloudy
12:10 PM 86.0 °F 91.8 °F 71.6 °F 62% 30.19 in 10.0 mi East 9.2 mph - N/A   Mostly Cloudy
12:17 PM 84.2 °F 89.6 °F 71.6 °F 66% 30.19 in 10.0 mi NE 9.2 mph - N/A   Mostly Cloudy
12:53 PM 84.9 °F 91.4 °F 73.0 °F 67% 30.20 in 10.0 mi ESE 5.8 mph - N/A   Mostly Cloudy
1:53 PM 87.1 °F 92.8 °F 71.1 °F 59% 30.18 in 10.0 mi ENE 8.1 mph - N/A   Mostly Cloudy
2:06 PM 82.4 °F 89.5 °F 75.2 °F 79% 30.16 in 4.0 mi East 3.5 mph - 0.05 in Rain Light Rain
2:23 PM 86.0 °F 95.1 °F 75.2 °F 70% 30.16 in 10.0 mi ENE 9.2 mph - 0.05 in   Scattered Clouds
2:53 PM 86.0 °F 92.2 °F 72.0 °F 63% 30.16 in 10.0 mi ENE 8.1 mph - 0.05 in   Mostly Cloudy
3:53 PM 89.1 °F 97.0 °F 73.0 °F 59% 30.14 in 10.0 mi East 6.9 mph - N/A   Mostly Cloudy
4:42 PM 82.4 °F 87.2 °F 71.6 °F 70% 30.13 in 1.5 mi SE 12.7 mph 24.2 mph 0.12 in Rain Heavy Rain
4:53 PM 79.0 °F - 71.1 °F 77% 30.14 in 6.0 mi SSE 4.6 mph - 0.18 in Rain Rain
5:53 PM 84.0 °F 91.9 °F 75.0 °F 74% 30.14 in 10.0 mi ESE 3.5 mph - 0.00 in   Mostly Cloudy
6:53 PM 84.0 °F 92.6 °F 75.9 °F 76% 30.13 in 10.0 mi Calm Calm - N/A   Mostly Cloudy
7:53 PM 82.9 °F 89.4 °F 73.9 °F 74% 30.14 in 10.0 mi ESE 4.6 mph - N/A   Mostly Cloudy
8:53 PM 79.0 °F - 73.0 °F 82% 30.16 in 10.0 mi East 3.5 mph - 0.00 in   Mostly Cloudy
9:53 PM 79.0 °F - 73.0 °F 82% 30.18 in 10.0 mi Calm Calm - N/A   Mostly Cloudy
10:53 PM 79.0 °F - 71.1 °F 77% 30.20 in 10.0 mi East 3.5 mph - N/A   Clear
11:53 PM 79.0 °F - 71.1 °F 77% 30.20 in 10.0 mi ENE 4.6 mph - N/A   Clear